Location: Sauerland
(51.1981°N, 7.8053°E)
Time: 16:12:28
(UTC+01:00)

ISS - Pass Details

Date: 24 February 2026
Orbit: 416 x 427 km, 51.6° (Epoch: 5 March)

Event Time Altitude Azimuth Distance (km) Brightness Sun altitude
Exits shadow 05:04:04 53° 76° (ENE) 520 -3.0 -22.6°
Drops below altitude 10° 05:06:44 10° 84° (E) 1,495 0.2 -22.2°
Sets 05:08:49 0° 85° (E) 2,358 1.5 -21.9°
